Wind_Speed
6 3 1 2 2 2 0 2 2 0 3 2 10 3 5 4 0 1 3 10 20 25 23 20 17 15 14 15 17 17 16 17 17 18 18 18 18 18 16 16 15 15 14 14 14 14 13 12 11
3 6 1 1 0 2 2 1 5 1 5 4 7 3 2 1 3 8 14 10 21 23 20 17 17 15 14 14 16 17 17 17 17 18 17 17 17 16 16 15 15 14 13 12 12 11 11 10 9
3 2 2 2 1 1 3 4 4 2 5 6 2 5 4 4 2 13 5 19 22 22 19 18 17 15 14 14 16 17 18 18 17 16 17 16 16 15 15 14 13 12 11 10 10 9 8 7 6
1 2 2 2 2 0 3 6 1 6 4 3 4 4 3 6 6 4 18 21 21 20 18 17 16 14 13 14 16 17 18 17 16 15 15 14 14 14 13 12 11 10 9 8 7 6 6 5 4
3 0 2 1 3 3 3 5 3 7 2 3 2 3 3 3 5 15 19 20 21 20 17 16 17 15 14 14 15 16 17 17 16 14 14 13 13 12 12 11 10 8 7 6 5 3 2 2 2
1 1 1 1 3 4 5 3 5 3 3 3 4 5 4 3 9 14 18 20 20 20 18 15 16 15 14 13 14 14 15 15 14 13 13 13 12 11 9 8 7 6 5 3 1 0 1 2 3
1 0 2 2 3 3 1 2 7 4 1 2 4 6 1 7 11 15 18 19 19 19 18 15 14 14 14 13 13 13 13 13 13 12 12 12 10 9 7 6 5 4 3 2 2 2 3 4 5
3 1 3 3 0 4 2 5 5 3 3 1 4 4 5 10 17 17 19 18 17 18 18 17 15 14 13 12 13 12 13 13 12 12 11 10 9 7 6 5 3 3 3 3 4 4 5 6 7
2 3 2 2 2 6 3 5 5 5 4 2 3 1 4 21 18 18 19 17 17 17 18 18 17 15 14 13 13 13 12 11 11 10 10 9 7 6 6 6 5 4 5 5 6 7 8 9 9
4 4 3 2 2 5 6 4 3 6 7 6 6 8 17 21 22 22 21 22 22 21 20 19 18 17 15 13 12 12 11 10 10 10 10 9 8 7 6 6 6 6 6 7 7 9 11 9 7
4 8 4 3 5 2 1 3 4 5 8 7 11 13 16 20 20 20 21 21 24 22 20 20 18 17 16 15 14 13 12 12 11 11 10 9 8 7 7 6 5 6 7 7 9 10 9 8 8
5 6 3 2 3 1 3 0 4 8 4 3 9 18 18 17 19 23 21 20 19 20 20 19 18 17 17 16 15 14 16 14 13 14 12 9 10 8 8 7 6 7 6 8 9 10 10 11 11
5 3 4 4 5 6 4 7 7 11 9 6 8 18 20 18 20 20 19 18 18 20 20 20 20 19 19 21 16 15 17 16 13 13 12 11 10 9 9 8 7 7 8 10 11 10 11 11 12
3 3 3 5 4 4 5 2 3 8 13 10 14 16 19 20 22 19 19 20 23 21 22 22 23 21 20 22 20 16 16 13 12 10 10 12 11 11 9 8 7 8 9 9 9 9 11 11 11
1 3 3 6 4 5 7 4 7 2 7 11 15 15 17 19 21 26 26 25 24 24 23 26 25 23 23 22 21 17 14 13 11 10 12 13 12 12 12 9 8 8 9 11 10 10 12 11 10
2 1 8 6 5 1 9 16 11 4 6 9 12 14 17 20 28 26 24 24 22 24 26 24 23 23 25 23 22 17 14 14 12 10 11 11 13 13 12 10 10 9 8 6 5 6 7 6 7
2 5 4 4 1 2 8 8 6 4 7 8 14 16 17 18 21 27 28 26 25 28 27 27 24 22 22 22 19 19 16 14 12 11 11 11 12 15 11 9 8 7 7 4 5 5 6 8 9
3 3 3 6 3 2 3 10 13 10 7 12 13 17 18 19 23 30 28 27 26 27 29 30 27 24 24 19 18 13 12 14 13 11 13 13 9 11 8 6 6 6 5 3 3 6 6 7 8
2 4 9 8 9 7 14 12 13 11 10 13 13 16 19 20 22 20 21 22 24 24 26 29 29 31 28 23 19 14 15 12 10 7 8 8 6 7 8 7 7 6 5 4 3 4 4 3 8
5 7 11 9 6 5 11 15 15 12 10 10 15 16 21 23 19 17 20 19 21 23 27 28 32 33 32 24 21 14 15 12 10 7 7 7 8 8 9 9 8 6 5 4 3 1 1 2 6
7 11 7 9 5 10 12 13 10 5 6 9 13 15 16 22 23 18 17 19 17 21 25 27 30 29 31 26 21 17 17 13 11 10 10 11 10 11 13 12 11 9 7 6 5 6 4 5 4
10 9 11 9 4 6 2 8 10 9 8 10 12 13 15 19 18 17 13 17 17 18 19 23 25 25 27 29 24 27 22 18 12 16 13 13 13 12 12 13 13 12 10 9 8 8 7 4 5
5 2 6 7 8 7 12 7 9 4 7 10 10 13 15 16 16 15 14 14 12 13 16 19 21 23 24 26 23 23 18 14 18 18 19 15 16 15 15 16 16 14 10 10 9 8 7 5 4
4 10 6 2 4 11 16 12 12 12 11 10 8 10 12 14 15 14 15 13 13 13 14 17 19 20 21 22 23 24 23 23 22 19 19 16 17 15 15 15 14 13 11 9 8 7 7 6 5
7 7 6 6 8 14 8 8 12 7 13 13 13 12 12 13 14 16 17 17 18 17 16 17 20 23 23 25 21 20 22 24 23 25 20 22 18 15 14 14 12 10 9 7 6 6 7 6 5
12 6 6 11 10 13 1 9 10 11 12 10 10 13 9 12 15 18 20 21 19 18 16 16 18 22 22 24 20 19 20 20 20 20 26 17 18 16 16 13 11 10 7 6 6 6 5 4 4
3 5 10 11 15 11 12 16 12 12 13 11 14 16 14 13 16 21 15 18 19 19 19 18 17 20 19 21 20 20 24 26 25 25 21 18 17 17 16 13 11 10 8 6 6 4 4 3 3
7 10 4 5 9 18 12 11 10 11 17 19 22 21 21 18 13 12 13 17 19 25 24 21 23 21 21 22 22 26 27 25 26 27 23 21 18 16 15 13 11 9 7 5 4 3 3 2 3
10 3 5 4 5 9 16 11 5 11 15 18 21 21 21 20 12 10 10 17 20 26 27 24 25 26 25 24 24 26 25 27 25 20 21 23 24 16 13 12 11 8 6 4 4 4 3 2 1
9 7 7 4 6 5 5 8 9 12 16 17 22 21 19 19 11 6 9 17 21 26 27 27 27 28 28 29 32 34 36 34 29 25 20 20 18 15 13 12 9 7 5 5 5 4 3 1 2
Wind_Direction
317 336 143 248 223 272 178 75 315 190 164 339 149 154 208 43 119 53 145 154 155 158 159 160 154 148 141 135 131 126 127 125 125 121 121 122 123 124 126 120 115 114 117 117 115 110 105 96 90
338 101 53 340 344 144 291 181 194 176 32 53 128 43 62 71 96 115 134 167 155 153 154 152 154 151 144 140 136 133 130 126 124 125 127 127 127 127 126 122 121 120 117 118 116 110 102 94 86
118 107 307 20 75 100 266 257 266 57 79 39 86 51 8 8 48 151 156 153 151 152 154 152 156 152 145 141 137 135 134 130 130 131 130 131 131 129 127 125 124 122 120 120 119 115 105 94 82
161 153 111 318 218 258 283 329 44 115 88 67 90 98 93 11 142 161 144 150 150 151 152 155 156 153 147 142 141 139 138 135 135 136 136 135 136 133 131 129 129 128 125 123 120 113 102 87 65
50 71 3 61 253 284 292 303 163 110 39 48 13 99 78 36 104 139 144 151 153 152 155 157 162 158 154 149 147 144 143 140 141 144 142 142 140 141 138 136 137 135 135 130 124 116 90 57 22
109 310 153 298 291 295 297 265 158 119 346 65 120 129 136 129 144 146 148 153 157 156 159 164 166 166 161 156 154 151 148 146 147 147 148 147 148 145 143 142 140 145 149 150 169 204 355 322 322
121 104 138 256 328 306 276 183 184 130 220 149 138 157 141 190 163 152 152 155 159 163 163 166 168 172 170 168 164 161 156 156 156 156 156 156 155 156 156 157 158 166 167 209 245 287 305 309 308
116 141 177 220 67 49 83 176 119 154 182 136 200 184 185 165 158 153 156 159 162 168 171 173 175 175 176 173 173 170 168 170 170 168 169 165 171 174 181 186 207 221 234 264 286 307 311 313 314
161 227 225 205 272 7 38 210 146 144 157 203 176 249 105 139 146 152 157 162 169 178 182 182 183 185 183 178 179 179 180 182 183 184 183 182 190 196 212 224 228 251 274 293 306 311 313 314 319
192 233 223 199 238 357 325 260 192 183 173 202 173 90 133 145 161 166 176 177 181 185 187 189 190 188 188 185 180 183 185 190 194 198 195 199 207 205 217 236 245 264 283 297 310 314 316 325 312
164 235 193 221 254 269 299 229 197 225 214 212 200 152 161 161 175 184 193 191 186 185 188 192 194 194 193 189 190 190 193 198 205 206 206 210 218 223 231 246 254 265 289 303 308 306 306 305 309
207 241 198 149 189 213 275 123 239 228 234 289 217 160 166 179 186 195 197 194 192 192 192 194 196 197 199 196 197 201 202 203 211 215 215 218 225 234 239 245 254 267 280 296 302 301 296 303 301
220 215 198 245 256 260 281 254 267 244 194 132 169 160 176 190 198 200 200 198 198 198 197 197 197 200 203 204 202 204 213 216 218 225 224 224 235 241 246 257 262 270 290 301 300 296 295 301 302
202 202 280 278 241 239 247 310 211 262 177 154 168 189 185 195 201 202 201 201 203 203 201 199 203 205 205 207 206 209 215 219 223 228 228 237 240 247 248 252 262 270 281 293 293 291 292 294 297
87 263 273 231 241 235 184 242 225 214 169 191 186 195 195 202 204 213 208 206 204 206 204 203 202 206 210 209 210 212 217 220 225 231 239 243 250 251 250 247 255 269 273 278 284 288 288 291 294
171 217 240 216 201 193 205 252 235 203 177 207 213 201 203 203 213 217 217 215 209 207 210 207 206 208 211 210 211 213 220 226 233 242 251 254 251 256 254 258 262 266 268 264 279 293 287 287 293
43 246 215 261 285 223 216 238 252 358 207 222 228 216 206 209 217 222 221 217 212 211 213 214 211 210 209 213 210 218 228 236 237 245 260 260 259 257 254 258 257 245 238 248 258 281 296 296 300
247 246 209 242 105 20 256 266 278 288 281 267 227 228 222 212 216 218 217 217 217 216 218 218 216 213 211 208 208 207 214 230 238 246 262 263 255 232 206 222 237 222 205 222 243 267 275 288 307
251 268 274 267 268 296 277 267 269 274 249 257 231 221 228 229 222 221 216 214 213 213 208 213 210 214 206 198 188 198 207 213 225 227 218 222 192 178 168 184 179 171 167 182 222 261 280 306 337
211 264 269 288 280 240 272 278 283 277 260 248 241 218 225 231 221 217 215 211 208 209 207 206 207 212 208 199 193 193 186 197 195 190 185 181 172 161 160 162 160 164 148 151 152 169 300 14 10
239 254 258 275 299 250 272 265 259 241 259 264 256 250 235 233 236 222 206 209 211 215 209 206 205 203 202 192 179 173 177 171 166 165 154 150 156 156 154 154 150 143 126 109 84 70 74 45 55
272 224 250 265 267 269 319 282 259 265 259 251 257 244 238 228 231 240 223 211 208 214 212 207 201 196 193 188 184 184 181 171 177 163 154 144 147 143 142 138 132 129 118 113 92 79 74 60 54
272 221 276 277 259 282 254 256 264 240 251 259 248 233 232 228 219 226 224 222 207 203 197 193 190 189 187 186 186 181 177 174 158 156 153 143 136 135 133 130 125 120 113 104 95 84 77 74 78
291 292 271 246 250 254 258 235 256 243 250 259 253 256 241 228 218 214 209 193 195 182 178 174 172 179 182 181 181 179 174 161 154 156 148 147 138 134 133 125 120 114 105 100 94 90 82 85 83
252 274 283 262 238 262 284 251 250 254 249 250 266 272 251 240 224 214 204 194 187 177 167 162 168 172 174 182 179 181 175 170 161 160 161 155 141 139 136 130 124 115 108 98 93 90 84 68 68
295 249 258 271 272 286 346 259 258 223 254 261 258 262 261 234 229 225 217 201 182 170 163 163 163 159 161 160 158 161 163 161 162 164 158 154 146 145 139 131 124 117 112 106 101 81 84 93 86
23 242 338 281 270 276 260 264 261 247 245 269 319 320 288 251 224 224 221 200 180 161 158 160 158 166 160 152 149 153 169 169 166 164 155 145 145 145 140 139 133 124 122 114 105 109 115 101 81
18 335 285 235 270 260 250 261 267 22 7 3 1 346 330 314 274 245 209 187 165 152 163 166 169 167 166 155 161 169 171 169 164 161 157 152 153 153 147 142 129 126 119 110 104 114 106 80 35
328 354 347 281 306 279 277 266 90 46 11 359 353 350 343 327 288 230 198 161 152 157 167 167 169 165 163 159 159 161 163 164 162 165 161 162 156 159 153 145 140 141 125 110 118 125 120 102 25
69 43 33 348 313 294 274 254 142 39 356 349 341 345 347 337 311 239 174 164 168 173 175 175 171 168 166 163 166 168 168 166 162 167 167 169 157 161 161 157 148 136 135 128 138 140 149 200 293
Height
779 778 778 777 784 782 790 792 786 785 782 772 770 779 781 780 788 803 793 794 797 801 806 809 813 816 816 818 820 822 824 824 825 826 828 829 830 831 833 834 835 835 836 837 837 838 838 838 838
778 779 779 776 787 797 789 783 785 778 776 773 774 777 781 787 785 790 794 795 799 803 808 813 814 816 817 818 820 822 824 826 828 828 830 831 832 833 834 835 836 837 838 839 839 839 839 840 841
779 780 778 783 794 798 794 777 773 776 774 777 779 777 783 788 788 790 791 795 799 804 810 812 815 817 819 820 822 823 824 827 829 830 831 833 834 835 836 837 838 839 839 840 840 841 841 842 842
780 780 783 789 794 786 785 776 776 776 776 776 778 787 785 789 789 790 793 798 802 807 811 814 816 818 820 822 823 824 825 827 830 832 833 835 836 837 838 839 839 840 841 842 843 843 843 843 843
780 780 791 797 793 786 782 776 776 780 783 782 781 789 789 791 791 792 795 800 804 808 812 815 816 819 821 823 824 825 827 828 830 832 835 836 837 838 839 840 840 842 843 844 844 844 844 843 843
781 785 798 802 796 785 780 779 778 782 783 781 785 787 788 792 795 796 798 801 805 808 812 816 817 820 822 824 826 827 828 830 831 833 835 836 837 839 841 842 843 843 844 844 844 844 844 843 843
783 789 800 801 796 790 784 779 778 783 786 785 781 789 788 792 795 796 800 803 805 808 812 816 819 821 823 824 826 828 830 832 832 834 836 837 838 839 841 843 843 843 844 844 843 844 844 843 842
781 785 800 798 795 790 779 778 776 779 783 781 780 787 786 787 793 796 800 803 806 809 810 814 818 821 824 826 827 830 831 832 833 834 837 838 839 840 841 842 843 843 843 843 843 843 844 843 842
780 790 798 793 791 781 773 777 777 777 778 779 778 779 783 788 794 798 799 803 806 809 810 813 816 820 824 826 827 829 831 833 834 836 837 838 841 841 841 842 842 842 843 843 842 842 842 841 840
779 790 789 781 778 777 774 777 774 779 779 779 779 783 786 789 793 795 796 797 801 805 808 811 814 817 822 825 827 829 831 834 834 836 837 839 840 840 840 841 841 842 842 841 841 840 840 839 839
783 785 779 777 774 774 777 778 772 773 777 769 771 778 785 788 792 793 794 795 797 802 806 809 813 816 819 823 825 827 829 831 832 834 835 837 839 839 840 840 840 841 841 841 841 840 839 837 836
785 777 777 775 773 775 776 771 771 770 765 764 765 770 781 785 787 787 791 796 799 801 804 808 811 814 817 820 823 825 826 828 830 831 834 836 837 837 838 839 839 839 839 838 839 838 837 835 834
783 777 776 772 773 773 773 772 772 765 762 762 767 771 776 782 784 786 790 794 798 799 802 805 809 811 813 816 820 822 823 825 828 829 832 835 835 836 836 837 838 837 837 837 837 835 835 833 833
777 778 775 771 771 772 773 774 773 751 757 762 766 770 772 776 780 784 787 790 793 796 798 802 805 807 810 813 816 819 821 824 826 828 830 831 832 833 834 834 835 835 835 835 834 833 832 831 830
779 784 778 772 768 770 769 778 772 754 757 759 763 766 771 775 779 777 779 783 787 791 794 796 799 803 806 810 814 817 818 821 823 826 826 828 829 830 831 831 831 832 832 832 831 830 829 829 827
784 785 790 769 771 768 770 779 758 756 761 762 761 765 767 769 768 773 776 780 784 787 789 794 797 799 802 806 810 814 816 818 820 823 824 826 826 826 828 830 830 831 831 830 829 828 828 826 825
791 793 796 782 772 771 772 773 756 755 759 762 761 759 761 762 766 766 769 774 778 781 785 789 794 798 801 804 808 811 814 816 818 820 821 822 823 824 827 828 828 828 828 828 827 826 826 824 822
795 795 794 790 778 776 778 774 759 757 759 756 758 755 754 754 755 754 761 767 772 776 781 786 790 794 797 802 806 809 811 813 815 817 818 819 820 821 824 824 826 827 826 825 825 824 823 821 820
791 794 794 785 777 785 776 774 764 754 760 753 751 752 750 746 745 752 756 761 766 770 775 778 783 785 791 795 802 806 807 810 812 813 816 817 819 820 821 822 824 825 825 824 824 824 822 821 820
793 794 790 784 778 782 771 770 757 751 749 746 742 744 744 739 742 747 750 755 759 763 767 771 774 778 786 791 796 800 804 807 809 811 812 815 816 817 819 820 823 823 823 823 822 822 821 821 820
789 790 791 789 779 774 776 770 758 746 748 745 742 737 738 738 737 740 745 750 755 758 761 766 769 774 780 786 791 796 801 805 808 810 811 812 815 816 818 820 820 821 821 823 822 820 820 820 821
791 775 777 782 788 789 773 785 760 748 748 744 736 735 733 735 735 735 742 747 751 754 759 762 767 772 776 781 786 789 794 799 803 807 811 814 816 818 819 820 820 821 822 822 822 821 821 822 821
777 771 775 776 781 785 775 785 756 755 747 735 730 729 727 728 732 734 738 744 748 752 755 759 764 770 775 778 784 790 795 800 802 807 811 815 817 820 821 821 821 822 823 821 820 820 821 822 821
765 770 774 782 780 785 766 774 755 747 738 727 722 718 718 720 723 728 736 742 746 749 752 756 762 768 774 777 780 785 789 795 801 808 811 815 816 819 821 821 821 821 822 821 820 820 822 822 822
772 781 791 787 780 774 751 768 750 732 724 723 717 713 715 716 719 724 730 735 742 746 749 754 758 764 769 772 781 786 791 795 798 801 807 811 813 817 819 820 821 820 820 822 822 821 822 825 825
782 780 783 797 785 767 763 761 740 725 716 715 716 713 714 714 715 718 720 729 738 744 748 752 757 762 769 771 778 784 788 793 798 802 804 810 812 816 817 820 820 821 823 823 823 823 823 823 824
783 784 780 779 764 776 756 738 730 725 721 718 721 718 717 711 709 709 718 728 735 739 744 751 756 761 766 767 772 779 786 790 795 801 804 808 812 816 817 820 822 823 824 824 823 823 822 823 823
802 796 789 775 789 781 751 753 744 743 753 746 742 738 731 723 718 718 717 726 731 735 743 749 753 758 762 763 768 774 783 790 793 797 800 805 813 817 817 821 820 824 824 825 824 824 823 823 824
811 807 814 809 793 783 768 748 761 766 762 758 750 745 737 726 717 719 722 727 730 733 739 743 747 751 757 761 767 775 781 786 794 802 801 803 803 815 819 819 819 823 823 822 823 823 822 823 822
824 834 833 826 804 812 802 768 759 760 761 760 754 743 738 732 723 721 731 731 729 730 734 739 743 747 751 755 762 770 776 780 784 794 805 809 809 815 818 819 821 821 824 822 823 821 820 820 820